SCP
-0 -0 -0 -0 -0 -0 0 0 0 0 -0 0 0 0 0 0 0 0 0 0 0 0 0 0 0 0 0 0 0 0 0 0 0 0 0 0 0 0 0 0 0 0 0 0
-0 -0 -0 -0 -0 -0 0 0 0 0 0 0 0 0 0 0 0 0 0 0 0 0 0 0 0 0 0 0 0 0 0 0 0 0 0 0 0 0 0 0 0 0 0 0
-0 -0 -0 -0 -0 -0 0 0 0 0 0 0 0 0 0 0 0 0 0 0 0 0 0 0 0 0 0 0 0 0 0 0 0 0 0 0 0 0 0 0 0 0 0 0
-0 -0 -0 -0 -0 -0 0 0 0 0 0 0 0 0 0 0 0 0 0 0 0 0 0 0 0 0 0 0 0 0 0 0 0 0 0 0 0 0 0 0 0 0 0 0
-0 -0 -0 -0 -0 -0 0 0 0 0 0 0 0 0 0 0 0 0 0 0 0 0 0 0 0 0 0 0 0 0 0 0 0 0 0 0 0 0 0 0 0 0 0 0
-0 -0 -0 -0 -0 -0 0 0 0 0 0 0 0 0 0 0 0 0 0 0 0 0 0 0 0 0 0 0 0 0 0 0 0 0 0 0 0 0 0 0 0 0 0 0
-0 -0 -0 -0 -0 0 -0 0 0 0 0 0 0 0 0 0 0 0 0 0 0 0 0 0 0 0 0 0 0 0 0 0 0 0 0 0 0 0 0 0 1 2 1 1
0 0 0 -0 0 0 -0 0 0 0 0 0 0 0 0 0 0 0 0 0 0 0 0 0 0 0 0 0 0 0 0 0 0 0 0 0 0 0 0 0 0 1 0 0
0 0 0 0 0 0 0 0 0 0 0 0 0 0 0 0 0 0 0 0 0 0 0 0 0 0 0 0 0 0 0 0 0 0 0 0 0 0 0 0 0 0 0 0
0 0 0 0 0 0 0 0 0 0 0 0 0 0 0 0 0 0 0 0 0 0 0 0 0 0 0 0 0 0 0 0 0 0 0 0 0 0 0 0 0 0 0 0
0 0 0 0 0 0 0 0 0 0 0 0 0 0 0 0 0 0 0 0 0 0 0 0 0 0 0 0 0 0 0 0 0 0 0 0 0 0 0 0 0 0 0 0
0 0 0 0 0 0 0 0 0 0 0 0 0 0 0 0 0 0 0 0 0 0 0 0 0 0 0 0 0 0 0 0 0 0 0 0 0 0 0 0 0 0 0 0
0 0 0 0 0 0 0 0 0 0 0 0 0 0 0 0 0 0 0 0 0 0 0 0 0 0 0 0 0 0 0 0 0 0 0 0 0 0 0 -0 0 0 0 0
0 0 0 0 0 0 0 0 0 0 0 0 0 0 0 0 0 0 0 0 0 0 0 0 0 0 0 0 0 0 0 0 0 0 0 0 0 0 0 0 0 0 0 0
0 0 0 0 0 0 0 0 0 0 0 0 0 0 0 0 0 0 0 0 0 0 0 0 0 0 0 0 0 0 0 0 0 0 0 0 0 0 0 0 0 0 0 0
0 0 0 0 0 0 0 0 0 0 0 0 0 0 0 0 0 0 0 0 0 0 0 0 0 0 0 0 0 0 0 0 0 0 0 0 -0 -0 0 0 0 0 0 0
0 0 0 0 0 0 0 0 0 0 0 0 0 0 0 0 0 0 0 0 0 0 0 0 0 0 0 0 0 0 0 0 0 0 0 -0 -0 0 0 0 0 0 0 0
0 0 0 0 0 0 0 0 0 0 0 0 0 0 0 0 0 0 0 0 0 0 0 0 0 0 0 0 0 0 0 0 0 0 -0 -0 0 0 -0 0 0 0 0 -0
0 0 0 0 0 0 0 0 0 0 0 0 0 0 0 0 0 0 0 0 0 0 0 0 0 0 0 0 0 0 0 0 0 -0 0 -0 -0 0 0 0 0 0 0 0
0 0 0 0 0 0 0 0 0 0 0 0 0 0 0 0 0 0 0 0 0 0 0 0 0 0 0 0 0 0 0 0 0 0 -0 -0 -0 0 0 0 0 0 0 0
0 0 0 0 0 0 0 0 0 0 0 0 0 0 0 0 0 0 0 0 0 0 0 0 0 0 0 0 0 0 0 0 0 -0 -0 -0 -0 0 0 0 0 0 0 0
0 0 0 0 0 0 0 0 0 0 0 0 0 0 0 0 0 0 0 0 0 0 -0 0 0 0 0 0 0 0 0 0 0 -0 -0 -0 -0 -0 0 -0 0 0 0 0
0 0 0 0 0 0 0 0 0 0 0 0 0 0 0 0 0 0 0 0 0 -0 0 0 0 0 0 0 0 0 0 -0 -0 -0 -0 0 -0 -0 -0 0 0 0 0 0
0 0 0 0 0 0 0 0 0 0 0 0 0 0 0 0 0 0 0 -0 0 -0 -0 0 0 0 0 0 0 0 0 -0 -0 -0 -0 -0 0 0 0 -0 -0 -0 0 -0
0 0 0 0 0 0 0 0 0 0 0 0 0 0 0 0 0 -0 -0 0 0 -0 0 0 0 0 0 0 0 0 0 0 -0 -0 -0 -0 0 0 0 0 0 -0 0 0
0 0 0 0 0 0 0 0 0 0 0 0 0 0 0 0 0 0 -0 -0 0 0 0 0 0 0 0 0 0 0 0 0 -0 -0 -0 -0 -0 -0 -0 -0 0 -0 -0 0
0 0 0 0 0 0 0 0 0 0 0 0 0 0 0 0 0 0 -0 -0 -0 0 -0 0 0 0 0 0 0 0 0 0 0 -0 -0 -0 -0 -0 -0 -0 -0 0 0 0
Wind_Speed_500mb
60 64 67 65 53 38 6 5 6 10 9 6 4 3 6 9 9 18 11 10 8 4 5 4 4 5 3 28 9 6 6 6 6 16 9 5 4 6 9 9 8 1 6 13
57 61 63 62 55 39 16 6 7 11 3 5 6 11 7 7 15 12 11 10 9 7 5 4 4 2 3 24 9 5 6 3 7 19 10 10 12 6 7 9 5 10 11 11
54 58 61 61 54 37 15 3 4 5 3 9 6 6 6 7 12 11 12 6 11 10 11 10 4 4 2 13 6 12 6 4 12 12 10 2 8 6 4 4 3 10 10 14
51 56 58 59 54 38 12 11 5 5 3 6 6 2 5 6 10 10 21 7 7 2 3 8 2 3 10 9 3 4 8 5 8 13 12 8 14 17 15 11 13 10 12 16
48 52 55 57 56 40 33 10 8 6 6 7 2 8 5 4 9 7 6 5 6 2 8 4 7 3 5 12 2 3 3 7 3 13 17 23 24 24 17 22 25 15 14 18
44 47 50 54 54 49 26 21 14 6 10 6 5 1 4 5 4 7 10 4 4 3 3 19 30 33 31 20 10 6 9 10 4 11 8 9 14 20 30 20 14 17 17 15
40 43 45 47 48 45 39 36 15 8 4 4 2 6 6 7 7 4 2 9 3 2 27 30 18 22 27 24 22 20 7 8 6 7 7 7 14 11 15 12 3 3 8 7
36 38 39 39 38 36 30 31 24 11 3 4 4 9 5 11 13 3 3 4 12 24 15 4 9 9 13 3 6 4 8 8 2 3 6 13 16 10 11 11 11 1 8 14
32 32 33 34 33 30 26 23 26 11 4 6 1 5 5 2 4 10 4 6 12 13 7 5 5 6 4 9 14 12 10 10 5 3 5 8 7 9 23 7 9 8 11 12
28 29 30 32 31 29 27 21 24 14 8 7 7 5 5 2 1 3 8 12 7 14 5 5 4 4 3 3 4 7 7 5 6 10 10 12 5 33 20 6 7 24 19 25
26 27 28 30 30 29 27 22 27 19 10 23 15 11 9 5 4 4 6 6 4 7 7 4 2 2 3 3 6 5 7 5 6 1 6 14 21 21 7 14 47 40 45 40
23 23 25 28 30 30 30 28 29 28 19 17 25 31 36 24 18 26 7 3 4 6 7 1 4 2 1 4 6 4 7 9 5 11 9 19 32 30 34 52 51 56 55 55
22 20 22 26 31 34 35 33 28 31 15 20 6 4 14 13 8 21 9 8 8 4 4 11 4 5 7 5 9 6 7 8 7 5 7 24 54 66 48 35 43 57 51 55
19 17 20 27 30 33 35 26 21 24 14 7 4 6 17 7 7 14 34 27 11 11 10 7 6 6 21 8 10 12 15 6 8 13 24 47 52 37 32 53 59 61 55 50
19 16 20 28 30 32 29 14 9 20 17 9 24 12 5 10 10 21 31 39 41 30 8 5 7 9 5 7 1 7 17 13 7 14 36 37 49 73 62 54 56 55 49 48
19 18 22 28 32 27 11 3 6 19 20 11 8 14 7 16 8 5 5 19 30 26 13 13 11 13 12 5 7 16 32 31 30 36 49 47 60 66 60 62 64 41 45 49
20 19 23 25 24 8 9 8 19 19 18 6 14 21 8 23 12 10 7 11 15 15 11 8 10 14 19 4 16 24 27 30 22 23 22 34 47 46 50 41 48 45 40 42
19 20 22 24 8 4 7 22 21 13 5 4 3 10 15 18 11 10 9 9 9 6 6 5 5 3 8 8 15 17 17 29 43 33 42 52 60 66 50 35 36 36 47 59
19 18 20 9 0 6 16 26 11 5 3 3 2 2 6 19 9 10 7 6 4 3 2 6 4 3 8 10 9 18 40 40 53 64 64 57 51 60 50 42 36 32 34 30
14 14 4 2 6 21 19 4 8 5 3 5 6 5 6 10 10 6 15 7 4 5 1 6 5 6 26 20 31 46 59 73 72 67 61 51 48 54 53 47 42 38 37 31
5 2 3 7 16 8 4 3 4 5 5 7 8 12 7 4 2 5 5 5 4 4 4 3 5 5 10 30 51 76 80 74 64 62 66 61 55 66 56 50 44 38 33 25
3 10 12 6 3 2 5 4 6 5 6 7 6 6 9 6 5 3 4 3 5 5 17 3 6 8 43 54 67 77 72 64 53 39 39 40 45 55 54 54 51 38 26 19
8 3 2 2 3 6 5 3 4 5 6 7 6 6 6 4 4 3 3 4 6 22 1 4 7 42 64 78 76 70 61 59 52 43 34 31 36 42 47 51 46 38 30 26
3 2 6 6 5 8 9 8 4 8 10 19 22 8 6 4 1 1 3 4 6 5 4 7 9 63 75 86 79 66 62 55 49 46 40 33 25 28 32 40 40 36 33 29
4 5 6 9 14 13 12 18 20 22 26 20 9 2 4 2 2 2 3 4 4 2 6 12 53 76 80 75 84 73 60 70 64 55 43 33 24 22 26 30 31 32 31 29
6 10 5 11 6 11 6 14 12 10 19 17 4 3 2 3 2 2 4 2 5 7 11 55 72 78 75 87 79 66 59 58 57 52 46 37 25 23 22 23 28 31 34 33
8 10 18 25 27 27 28 17 15 19 17 3 4 4 4 2 1 4 5 7 8 38 51 65 72 84 81 71 58 52 56 52 49 46 35 30 22 8 12 16 12 21 24 27
Wind_Direction_500mb
3 5 4 2 5 8 51 83 66 128 147 38 40 141 206 329 327 12 34 78 72 121 42 60 84 122 315 349 325 1 351 135 282 243 282 297 172 127 133 129 229 220 161 269
1 4 5 3 4 5 22 67 94 158 166 89 346 320 323 28 11 23 17 47 37 24 72 138 133 87 298 7 39 34 327 348 354 336 352 12 51 347 118 113 90 200 146 258
1 3 6 7 4 8 16 54 59 81 153 80 120 14 349 354 36 47 55 59 58 53 27 12 141 334 297 333 0 25 139 140 187 207 229 206 292 321 326 129 158 173 228 285
1 3 5 9 9 10 26 40 60 49 322 11 30 65 346 4 10 26 39 46 60 114 73 3 345 294 322 291 293 45 99 249 227 246 252 268 249 259 237 221 233 198 244 216
2 5 5 8 15 20 44 54 23 11 17 334 63 6 21 32 331 33 2 73 315 44 127 164 272 343 242 239 303 82 13 257 208 274 267 249 253 254 231 235 241 246 252 265
3 6 7 7 15 25 43 33 14 7 1 7 85 331 304 1 331 67 65 349 126 149 218 298 280 266 254 243 204 219 185 179 118 261 315 325 296 239 234 232 198 195 203 225
0 4 7 9 12 21 31 26 14 10 306 38 62 352 328 359 357 281 35 37 80 242 310 301 275 261 260 270 269 215 191 136 152 263 23 234 245 294 278 252 214 331 312 311
354 358 4 9 12 12 16 23 26 7 322 287 321 352 332 327 323 307 265 22 329 317 312 13 360 339 1 329 28 92 161 135 203 212 208 288 305 18 16 35 291 86 307 314
348 353 1 6 9 9 7 9 12 359 351 253 276 307 313 269 317 334 245 307 332 344 76 78 165 234 279 317 339 54 73 74 121 76 224 257 260 323 321 281 282 0 331 315
349 354 357 360 1 3 4 356 0 354 294 260 203 239 251 226 167 233 298 336 332 4 57 81 151 266 343 289 284 332 352 356 212 218 231 279 294 313 318 205 281 328 315 307
343 349 355 1 5 4 3 352 348 350 288 286 257 218 212 225 237 171 317 1 339 39 65 114 219 167 291 310 271 214 194 230 239 79 239 265 6 3 34 305 317 309 312 315
339 345 352 356 358 360 360 355 343 330 285 270 279 268 258 271 270 258 253 252 246 186 95 174 129 220 339 142 270 316 268 193 210 197 239 275 303 278 303 319 305 312 303 304
332 338 345 350 349 346 348 348 348 349 317 306 304 171 189 319 322 224 224 223 217 215 222 157 149 226 138 213 233 237 270 216 221 330 275 277 297 299 291 303 326 327 323 307
326 329 336 341 344 341 340 345 354 8 331 324 281 245 296 307 254 234 231 238 236 270 254 182 158 192 194 217 227 198 216 190 228 256 280 281 283 292 306 300 302 313 315 312
324 321 329 335 340 337 331 339 8 11 15 300 295 314 70 356 315 252 247 238 244 253 203 169 219 219 180 227 91 242 206 212 207 265 265 262 279 293 296 294 293 298 305 314
316 319 326 333 340 340 353 346 350 344 354 318 321 319 330 7 20 20 278 255 243 224 210 215 220 219 198 242 249 232 255 259 273 273 288 294 295 292 288 284 287 287 297 298
305 313 323 330 338 29 43 16 322 323 323 297 308 323 323 355 356 336 293 251 229 241 246 233 245 225 199 229 260 264 284 284 279 278 298 316 308 304 309 283 280 289 280 277
298 307 318 325 325 299 331 340 329 317 311 296 343 282 326 358 335 332 337 301 281 239 256 265 249 265 225 257 264 288 301 301 303 296 278 289 298 299 300 299 291 286 268 269
298 308 318 323 316 337 325 327 342 330 272 273 278 251 287 344 336 305 299 327 342 309 244 254 182 225 233 247 291 300 313 297 287 294 289 293 285 289 286 295 291 293 295 301
290 306 308 230 309 324 324 359 347 296 254 238 242 233 270 324 331 309 339 358 332 326 325 294 227 258 278 275 284 283 304 302 302 291 281 284 278 279 284 286 288 294 307 314
283 277 261 280 316 318 323 323 300 304 289 225 245 237 268 282 310 288 352 314 294 317 293 294 268 254 264 279 294 301 306 306 306 297 289 278 268 270 279 280 280 286 308 322
275 295 288 299 278 314 36 293 297 228 250 228 217 297 257 286 277 291 340 301 343 274 337 299 274 254 297 303 308 315 322 325 323 318 304 290 271 269 271 268 270 275 295 304
290 282 258 244 216 35 167 225 278 274 231 244 252 282 250 245 267 276 342 293 250 320 255 260 255 291 313 319 324 334 345 343 342 340 322 296 281 266 261 258 255 269 277 281
265 254 323 179 231 241 198 204 242 323 284 307 315 267 213 232 255 174 286 275 310 294 299 260 281 311 320 326 338 339 346 349 342 339 332 321 296 275 260 250 253 267 272 270
230 206 234 223 240 264 279 298 288 279 290 316 305 271 223 261 291 189 311 281 287 262 254 277 306 317 323 330 338 339 341 343 344 345 341 319 298 274 262 249 254 261 268 271
232 229 251 242 275 279 261 317 323 23 342 322 306 77 348 271 178 286 269 299 266 261 254 297 311 324 333 332 339 339 343 349 348 350 341 333 310 267 256 250 251 258 262 263
228 244 240 255 274 270 281 285 314 335 342 314 342 293 227 125 292 228 193 215 231 279 305 314 324 322 328 336 336 338 341 350 352 7 6 358 350 268 239 256 257 257 254 257
Wind_Speed_850mb
60 64 67 65 53 38 6 5 6 10 9 6 4 3 6 9 9 18 11 10 8 4 5 4 4 5 3 28 9 6 6 6 6 16 9 5 4 6 9 9 8 1 6 13
57 61 63 62 55 39 16 6 7 11 3 5 6 11 7 7 15 12 11 10 9 7 5 4 4 2 3 24 9 5 6 3 7 19 10 10 12 6 7 9 5 10 11 11
54 58 61 61 54 37 15 3 4 5 3 9 6 6 6 7 12 11 12 6 11 10 11 10 4 4 2 13 6 12 6 4 12 12 10 2 8 6 4 4 3 10 10 14
51 56 58 59 54 38 12 11 5 5 3 6 6 2 5 6 10 10 21 7 7 2 3 8 2 3 10 9 3 4 8 5 8 13 12 8 14 17 15 11 13 10 12 16
48 52 55 57 56 40 33 10 8 6 6 7 2 8 5 4 9 7 6 5 6 2 8 4 7 3 5 12 2 3 3 7 3 13 17 23 24 24 17 22 25 15 14 18
44 47 50 54 54 49 26 21 14 6 10 6 5 1 4 5 4 7 10 4 4 3 3 19 30 33 31 20 10 6 9 10 4 11 8 9 14 20 30 20 14 17 17 15
40 43 45 47 48 45 39 36 15 8 4 4 2 6 6 7 7 4 2 9 3 2 27 30 18 22 27 24 22 20 7 8 6 7 7 7 14 11 15 12 3 3 8 7
36 38 39 39 38 36 30 31 24 11 3 4 4 9 5 11 13 3 3 4 12 24 15 4 9 9 13 3 6 4 8 8 2 3 6 13 16 10 11 11 11 1 8 14
32 32 33 34 33 30 26 23 26 11 4 6 1 5 5 2 4 10 4 6 12 13 7 5 5 6 4 9 14 12 10 10 5 3 5 8 7 9 23 7 9 8 11 12
28 29 30 32 31 29 27 21 24 14 8 7 7 5 5 2 1 3 8 12 7 14 5 5 4 4 3 3 4 7 7 5 6 10 10 12 5 33 20 6 7 24 19 25
26 27 28 30 30 29 27 22 27 19 10 23 15 11 9 5 4 4 6 6 4 7 7 4 2 2 3 3 6 5 7 5 6 1 6 14 21 21 7 14 47 40 45 40
23 23 25 28 30 30 30 28 29 28 19 17 25 31 36 24 18 26 7 3 4 6 7 1 4 2 1 4 6 4 7 9 5 11 9 19 32 30 34 52 51 56 55 55
22 20 22 26 31 34 35 33 28 31 15 20 6 4 14 13 8 21 9 8 8 4 4 11 4 5 7 5 9 6 7 8 7 5 7 24 54 66 48 35 43 57 51 55
19 17 20 27 30 33 35 26 21 24 14 7 4 6 17 7 7 14 34 27 11 11 10 7 6 6 21 8 10 12 15 6 8 13 24 47 52 37 32 53 59 61 55 50
19 16 20 28 30 32 29 14 9 20 17 9 24 12 5 10 10 21 31 39 41 30 8 5 7 9 5 7 1 7 17 13 7 14 36 37 49 73 62 54 56 55 49 48
19 18 22 28 32 27 11 3 6 19 20 11 8 14 7 16 8 5 5 19 30 26 13 13 11 13 12 5 7 16 32 31 30 36 49 47 60 66 60 62 64 41 45 49
20 19 23 25 24 8 9 8 19 19 18 6 14 21 8 23 12 10 7 11 15 15 11 8 10 14 19 4 16 24 27 30 22 23 22 34 47 46 50 41 48 45 40 42
19 20 22 24 8 4 7 22 21 13 5 4 3 10 15 18 11 10 9 9 9 6 6 5 5 3 8 8 15 17 17 29 43 33 42 52 60 66 50 35 36 36 47 59
19 18 20 9 0 6 16 26 11 5 3 3 2 2 6 19 9 10 7 6 4 3 2 6 4 3 8 10 9 18 40 40 53 64 64 57 51 60 50 42 36 32 34 30
14 14 4 2 6 21 19 4 8 5 3 5 6 5 6 10 10 6 15 7 4 5 1 6 5 6 26 20 31 46 59 73 72 67 61 51 48 54 53 47 42 38 37 31
5 2 3 7 16 8 4 3 4 5 5 7 8 12 7 4 2 5 5 5 4 4 4 3 5 5 10 30 51 76 80 74 64 62 66 61 55 66 56 50 44 38 33 25
3 10 12 6 3 2 5 4 6 5 6 7 6 6 9 6 5 3 4 3 5 5 17 3 6 8 43 54 67 77 72 64 53 39 39 40 45 55 54 54 51 38 26 19
8 3 2 2 3 6 5 3 4 5 6 7 6 6 6 4 4 3 3 4 6 22 1 4 7 42 64 78 76 70 61 59 52 43 34 31 36 42 47 51 46 38 30 26
3 2 6 6 5 8 9 8 4 8 10 19 22 8 6 4 1 1 3 4 6 5 4 7 9 63 75 86 79 66 62 55 49 46 40 33 25 28 32 40 40 36 33 29
4 5 6 9 14 13 12 18 20 22 26 20 9 2 4 2 2 2 3 4 4 2 6 12 53 76 80 75 84 73 60 70 64 55 43 33 24 22 26 30 31 32 31 29
6 10 5 11 6 11 6 14 12 10 19 17 4 3 2 3 2 2 4 2 5 7 11 55 72 78 75 87 79 66 59 58 57 52 46 37 25 23 22 23 28 31 34 33
8 10 18 25 27 27 28 17 15 19 17 3 4 4 4 2 1 4 5 7 8 38 51 65 72 84 81 71 58 52 56 52 49 46 35 30 22 8 12 16 12 21 24 27
Wind_Direction_850mb
3 5 4 2 5 8 51 83 66 128 147 38 40 141 206 329 327 12 34 78 72 121 42 60 84 122 315 349 325 1 351 135 282 243 282 297 172 127 133 129 229 220 161 269
1 4 5 3 4 5 22 67 94 158 166 89 346 320 323 28 11 23 17 47 37 24 72 138 133 87 298 7 39 34 327 348 354 336 352 12 51 347 118 113 90 200 146 258
1 3 6 7 4 8 16 54 59 81 153 80 120 14 349 354 36 47 55 59 58 53 27 12 141 334 297 333 0 25 139 140 187 207 229 206 292 321 326 129 158 173 228 285
1 3 5 9 9 10 26 40 60 49 322 11 30 65 346 4 10 26 39 46 60 114 73 3 345 294 322 291 293 45 99 249 227 246 252 268 249 259 237 221 233 198 244 216
2 5 5 8 15 20 44 54 23 11 17 334 63 6 21 32 331 33 2 73 315 44 127 164 272 343 242 239 303 82 13 257 208 274 267 249 253 254 231 235 241 246 252 265
3 6 7 7 15 25 43 33 14 7 1 7 85 331 304 1 331 67 65 349 126 149 218 298 280 266 254 243 204 219 185 179 118 261 315 325 296 239 234 232 198 195 203 225
0 4 7 9 12 21 31 26 14 10 306 38 62 352 328 359 357 281 35 37 80 242 310 301 275 261 260 270 269 215 191 136 152 263 23 234 245 294 278 252 214 331 312 311
354 358 4 9 12 12 16 23 26 7 322 287 321 352 332 327 323 307 265 22 329 317 312 13 360 339 1 329 28 92 161 135 203 212 208 288 305 18 16 35 291 86 307 314
348 353 1 6 9 9 7 9 12 359 351 253 276 307 313 269 317 334 245 307 332 344 76 78 165 234 279 317 339 54 73 74 121 76 224 257 260 323 321 281 282 0 331 315
349 354 357 360 1 3 4 356 0 354 294 260 203 239 251 226 167 233 298 336 332 4 57 81 151 266 343 289 284 332 352 356 212 218 231 279 294 313 318 205 281 328 315 307
343 349 355 1 5 4 3 352 348 350 288 286 257 218 212 225 237 171 317 1 339 39 65 114 219 167 291 310 271 214 194 230 239 79 239 265 6 3 34 305 317 309 312 315
339 345 352 356 358 360 360 355 343 330 285 270 279 268 258 271 270 258 253 252 246 186 95 174 129 220 339 142 270 316 268 193 210 197 239 275 303 278 303 319 305 312 303 304
332 338 345 350 349 346 348 348 348 349 317 306 304 171 189 319 322 224 224 223 217 215 222 157 149 226 138 213 233 237 270 216 221 330 275 277 297 299 291 303 326 327 323 307
326 329 336 341 344 341 340 345 354 8 331 324 281 245 296 307 254 234 231 238 236 270 254 182 158 192 194 217 227 198 216 190 228 256 280 281 283 292 306 300 302 313 315 312
324 321 329 335 340 337 331 339 8 11 15 300 295 314 70 356 315 252 247 238 244 253 203 169 219 219 180 227 91 242 206 212 207 265 265 262 279 293 296 294 293 298 305 314
316 319 326 333 340 340 353 346 350 344 354 318 321 319 330 7 20 20 278 255 243 224 210 215 220 219 198 242 249 232 255 259 273 273 288 294 295 292 288 284 287 287 297 298
305 313 323 330 338 29 43 16 322 323 323 297 308 323 323 355 356 336 293 251 229 241 246 233 245 225 199 229 260 264 284 284 279 278 298 316 308 304 309 283 280 289 280 277
298 307 318 325 325 299 331 340 329 317 311 296 343 282 326 358 335 332 337 301 281 239 256 265 249 265 225 257 264 288 301 301 303 296 278 289 298 299 300 299 291 286 268 269
298 308 318 323 316 337 325 327 342 330 272 273 278 251 287 344 336 305 299 327 342 309 244 254 182 225 233 247 291 300 313 297 287 294 289 293 285 289 286 295 291 293 295 301
290 306 308 230 309 324 324 359 347 296 254 238 242 233 270 324 331 309 339 358 332 326 325 294 227 258 278 275 284 283 304 302 302 291 281 284 278 279 284 286 288 294 307 314
283 277 261 280 316 318 323 323 300 304 289 225 245 237 268 282 310 288 352 314 294 317 293 294 268 254 264 279 294 301 306 306 306 297 289 278 268 270 279 280 280 286 308 322
275 295 288 299 278 314 36 293 297 228 250 228 217 297 257 286 277 291 340 301 343 274 337 299 274 254 297 303 308 315 322 325 323 318 304 290 271 269 271 268 270 275 295 304
290 282 258 244 216 35 167 225 278 274 231 244 252 282 250 245 267 276 342 293 250 320 255 260 255 291 313 319 324 334 345 343 342 340 322 296 281 266 261 258 255 269 277 281
265 254 323 179 231 241 198 204 242 323 284 307 315 267 213 232 255 174 286 275 310 294 299 260 281 311 320 326 338 339 346 349 342 339 332 321 296 275 260 250 253 267 272 270
230 206 234 223 240 264 279 298 288 279 290 316 305 271 223 261 291 189 311 281 287 262 254 277 306 317 323 330 338 339 341 343 344 345 341 319 298 274 262 249 254 261 268 271
232 229 251 242 275 279 261 317 323 23 342 322 306 77 348 271 178 286 269 299 266 261 254 297 311 324 333 332 339 339 343 349 348 350 341 333 310 267 256 250 251 258 262 263
228 244 240 255 274 270 281 285 314 335 342 314 342 293 227 125 292 228 193 215 231 279 305 314 324 322 328 336 336 338 341 350 352 7 6 358 350 268 239 256 257 257 254 257